Flag for Poland Weather past 2 weeks in Częstochowa, Poland

Now
46 °F

Light rain. Passing clouds.


Feels Like: 40 °F
Forecast: 40 / 45 °F
Wind: 14 mph from Southwest

Location: Katowice Airport

Current Time: Dec 19, 2014 at 3:02:10 AM

Latest Report: Dec 19, 2014 at 2:30 AM


Visibility: 4 mi

Pressure: 29.83 "Hg

Humidity: 93%

Dew point: 45 °F

Location of CzęstochowaLocation

Historic Weather in Częstochowa — Graph

°F

Częstochowa temperature yesterday

Maximum temperature yesterday: 46 °F (at 10:30 PM)
Minimum temperature yesterday: 37 °F (at 12:00 AM)
Average temperature yesterday: 42 °F

Past Weeks' High & Low Weather Summary

 TemperatureHumidityPressure
High48 °F (Dec 13, 5:00 AM)100% (Dec 4, 3:30 AM)30.39 "Hg (Dec 4, 3:30 AM)
Low16 °F (Dec 10, 7:00 AM)46% (Dec 12, 8:00 PM)29.71 "Hg (Dec 12, 5:30 PM)
Average37 °F85%30.01 "Hg
* Reported Dec 4 2:00 AM — Dec 19 2:00 AM, Częstochowa, Weather by CustomWeather, © 2014

Note: Actual official high and low records may vary slightly from our data, if they occured in-between our weather recording intervals... More about our weather records

Advertising

Częstochowa weather history for previous 24 hours

 ConditionsComfort  
Time TempWeatherWind HumidityBarometerVisibility
2:00 AM
Dec 19
46 °FLight rain. Partly cloudy.15 mph93%29.83 "Hg4 mi
1:30 AM46 °FPassing clouds.15 mph93%29.83 "Hg4 mi
1:00 AM46 °FLight rain. Partly cloudy.14 mph93%29.83 "Hg5 mi
12:30 AM46 °FLight rain. Passing clouds.16 mph93%29.86 "HgN/A
12:00 AM46 °FLight rain. Passing clouds.16 mph87%29.86 "HgN/A
11:30 PM
Dec 18
46 °FPassing clouds.16 mph87%29.86 "HgN/A
11:00 PM46 °FPassing clouds.14 mph87%29.86 "HgN/A
10:30 PM46 °FClear.13 mph82%29.86 "Hg10 mi
10:00 PM45 °FClear.12 mph87%29.86 "Hg10 mi
9:30 PM45 °FPassing clouds.12 mph87%29.89 "HgN/A
9:00 PM45 °FPassing clouds.12 mph87%29.89 "HgN/A
8:30 PM45 °FPassing clouds.12 mph87%29.89 "HgN/A
8:00 PM45 °FClear.10 mph87%29.89 "Hg6 mi
7:30 PM45 °FClear.9 mph87%29.89 "Hg5 mi
7:00 PM45 °FPassing clouds.8 mph81%29.89 "HgN/A
6:30 PM45 °FPassing clouds.9 mph81%29.89 "HgN/A
6:00 PM45 °FPassing clouds.10 mph81%29.92 "HgN/A
5:30 PM45 °FPassing clouds.9 mph81%29.92 "HgN/A
5:00 PM45 °FPassing clouds.8 mph81%29.92 "HgN/A
4:30 PM43 °FPassing clouds.9 mph87%29.92 "HgN/A
4:00 PM45 °FPassing clouds.9 mph81%29.92 "HgN/A
3:30 PM45 °FPartly sunny.9 mph81%29.92 "HgN/A
3:00 PM45 °FPartly sunny.8 mph81%29.89 "HgN/A
2:30 PM45 °FPassing clouds.8 mph81%29.89 "HgN/A
2:00 PM45 °FPartly sunny.10 mph81%29.92 "HgN/A
1:30 PM45 °FPartly sunny.12 mph76%29.89 "HgN/A
1:00 PM45 °FPartly sunny.12 mph81%29.89 "HgN/A
12:30 PM45 °FPartly sunny.12 mph81%29.89 "HgN/A
12:00 PM45 °FBroken clouds.13 mph81%29.89 "HgN/A
11:30 AM43 °FPartly sunny.13 mph87%29.89 "HgN/A
11:00 AM43 °FPartly sunny.12 mph87%29.92 "HgN/A
10:30 AM41 °FPartly sunny.10 mph93%29.89 "Hg5 mi
10:00 AM41 °FLight rain. Broken clouds.7 mph93%29.89 "Hg4 mi
9:30 AM41 °FLight rain. Partly sunny.12 mph93%29.89 "Hg4 mi
9:00 AM39 °FPartly sunny.10 mph93%29.89 "Hg4 mi
8:30 AM39 °FLight rain. Fog.10 mph93%29.86 "Hg3 mi
8:00 AM39 °FLight rain. Fog.10 mph93%29.86 "Hg2 mi
7:30 AM39 °FLight rain. Fog.9 mph93%29.86 "Hg2 mi
7:00 AM39 °FLight rain. Fog.10 mph93%29.83 "Hg2 mi
6:30 AM39 °FLight rain. Partly cloudy.10 mph87%29.83 "Hg5 mi
6:00 AM39 °FLight rain. Partly cloudy.10 mph87%29.83 "Hg5 mi
5:30 AM39 °FLight rain. Passing clouds.10 mph87%29.80 "Hg5 mi
5:00 AM39 °FLight rain. Passing clouds.10 mph87%29.80 "Hg5 mi
4:30 AM39 °FLight rain. Passing clouds.9 mph87%29.80 "Hg4 mi
4:00 AM39 °FPassing clouds.12 mph87%29.77 "Hg5 mi
3:30 AM39 °FPassing clouds.12 mph87%29.77 "Hg5 mi
3:00 AM39 °FPassing clouds.9 mph87%29.77 "Hg5 mi
Weather by CustomWeather, © 2014

See weather overviewHow to use our weather pages